RH
61 57 56 46 38 37 45 42 32 36 42 42 46 39 39 54 58 42 56 65 55 30 35 44 38 32 28 18 13 12 10 5 4 4 5 7 8 7 12 13 11 16 17 32
58 50 42 34 37 42 40 32 33 44 46 47 48 48 50 51 52 54 71 69 62 37 37 44 42 36 31 26 14 14 12 10 6 5 5 5 7 7 8 13 13 14 17 28
62 56 44 36 40 35 27 30 39 50 56 48 51 58 55 48 44 56 72 81 61 42 34 53 55 40 29 28 21 14 13 10 10 6 4 5 6 7 7 11 14 14 20 23
53 46 42 45 36 28 30 35 44 48 53 58 50 53 53 42 59 62 81 74 65 54 35 46 48 46 33 30 28 16 13 13 12 9 5 5 5 6 7 10 14 14 17 22
42 38 34 29 27 38 38 44 48 56 58 63 59 49 57 57 80 72 83 73 77 64 49 36 47 47 40 33 26 17 13 11 11 13 8 5 5 5 6 7 13 13 16 19
34 25 26 32 43 44 44 47 49 52 53 53 59 55 71 68 71 69 77 77 85 53 55 32 45 42 43 32 26 19 16 13 10 10 10 7 5 5 4 6 8 13 13 15
22 24 30 41 38 40 41 45 48 49 48 55 70 75 68 75 63 74 84 79 76 57 37 33 43 44 37 34 30 23 16 13 11 10 8 7 5 4 4 5 6 10 12 15
26 27 31 36 34 46 52 55 60 61 55 64 91 68 54 71 66 66 77 76 70 65 37 29 28 32 37 32 32 32 19 14 11 11 9 8 6 4 4 4 6 8 12 12
30 32 30 34 40 47 50 54 56 61 55 53 74 71 71 60 58 64 86 80 68 68 47 27 30 27 45 28 33 29 21 15 12 12 10 7 5 4 4 3 4 6 13 11
27 28 30 35 39 49 56 51 53 53 52 44 60 83 59 64 56 59 72 86 75 59 42 35 25 28 39 32 31 24 24 14 11 12 9 5 4 3 3 2 3 4 11 11
24 26 28 35 38 54 55 55 57 58 63 62 67 99 71 62 68 69 72 72 79 52 39 34 24 23 29 35 31 26 24 12 10 10 7 3 2 2 2 2 2 4 8 11
35 30 30 33 41 49 60 58 61 67 80 83 77 97 66 62 87 64 63 59 69 49 37 35 26 20 22 27 26 28 22 11 8 8 5 2 2 2 1 2 2 2 5 10
33 30 31 39 44 52 66 69 66 75 86 94 79 88 78 69 89 71 62 48 60 47 41 36 30 27 20 24 28 26 23 10 7 6 3 2 2 2 1 1 1 2 4 8
32 35 36 50 59 66 87 84 71 91 66 83 90 61 63 70 80 79 68 49 69 48 45 39 32 27 23 23 24 21 22 10 7 4 2 2 2 2 2 1 1 1 2 6
41 31 39 44 55 59 72 74 66 84 82 87 64 69 67 51 56 58 62 57 71 64 49 44 36 28 24 22 22 18 19 10 6 4 2 2 2 2 2 1 1 1 2 3
31 36 48 56 60 67 91 78 66 85 97 67 70 60 68 48 49 55 56 56 57 70 60 45 37 28 19 19 21 18 18 10 6 3 2 2 2 2 2 2 1 1 1 3
31 43 49 60 64 71 100 73 61 64 100 70 85 65 61 51 51 41 43 51 58 62 61 51 39 31 19 18 21 18 17 10 6 4 2 2 2 1 2 2 1 1 1 2
35 43 60 62 71 67 74 49 56 76 90 86 91 66 60 50 43 41 44 42 49 65 61 53 40 36 22 18 19 20 15 12 6 4 2 2 2 1 1 2 1 1 1 2
40 58 60 64 72 49 75 53 56 78 81 84 84 62 52 55 36 44 41 49 45 48 58 53 39 32 23 19 17 20 15 12 6 5 2 2 2 1 2 2 1 1 1 2
44 59 68 84 71 72 81 68 68 59 65 58 58 62 55 57 46 48 57 67 64 55 54 48 41 37 25 19 17 20 15 14 7 5 3 2 2 1 2 2 1 1 1 2
54 69 96 97 63 69 74 66 68 54 43 45 59 68 58 51 67 66 66 73 85 70 55 43 42 38 25 20 16 16 15 14 8 6 3 2 2 1 1 1 2 1 1 2
70 99 100 78 53 61 53 62 77 67 48 60 65 68 66 64 76 81 76 69 80 85 64 40 38 42 25 22 17 15 14 14 9 6 3 2 2 1 1 1 1 1 1 2
78 100 98 77 83 68 87 84 95 67 37 37 62 93 82 87 72 82 77 69 54 77 64 41 32 37 26 21 17 14 12 13 11 6 3 2 2 1 1 1 1 1 1 2
90 100 85 62 86 75 79 97 73 72 59 58 53 58 90 87 80 58 59 58 44 45 55 47 29 38 32 23 17 14 11 13 13 6 4 2 2 2 1 1 1 1 2 2
100 94 91 77 96 65 100 99 84 76 74 71 72 52 40 58 59 50 33 34 28 25 52 45 32 30 31 22 17 12 10 11 13 7 5 3 2 2 1 1 1 1 2 2
100 100 99 66 88 78 94 69 82 70 65 55 56 36 31 29 23 22 18 22 18 23 35 41 40 31 29 22 17 12 10 12 12 8 6 3 2 2 2 1 2 2 2 2
Wind_Speed
33 32 32 33 35 38 44 50 57 58 62 69 74 79 83 87 93 98 101 101 103 100 96 97 99 93 87 71 61 54 42 29 26 39 58 74 84 103 121 129 125 119 115 114
34 35 34 35 34 39 47 50 56 64 65 68 74 78 84 89 91 97 102 103 101 99 95 95 93 92 84 74 66 56 47 35 28 31 45 66 81 93 113 128 129 124 120 119
38 38 34 33 37 43 48 53 58 59 63 70 77 79 85 88 92 97 103 105 100 97 92 88 87 92 88 84 68 60 50 38 29 31 37 53 73 88 102 126 133 129 124 120
40 38 38 36 38 43 50 52 54 60 71 73 78 82 87 90 95 98 102 104 99 94 90 84 87 87 88 84 73 62 53 43 32 28 35 43 62 82 94 124 131 134 130 124
39 37 37 33 39 48 50 51 54 58 63 74 82 85 88 94 98 101 103 104 102 95 95 87 86 87 87 86 78 60 59 49 36 27 31 40 51 69 88 112 131 140 136 132
38 34 34 40 43 50 51 51 55 62 68 73 82 91 92 98 100 103 106 102 101 95 96 89 86 87 89 89 85 67 60 56 44 34 23 39 48 61 81 99 125 138 143 138
36 34 38 40 48 57 60 61 63 64 67 74 86 93 97 101 103 105 107 102 99 96 94 90 85 87 91 89 86 73 63 61 50 41 33 27 47 57 75 93 110 135 149 144
41 43 43 48 55 58 62 65 67 70 72 78 90 95 99 105 103 106 108 104 100 96 95 96 89 91 92 92 87 83 68 64 60 52 43 37 38 57 70 86 108 136 153 150
37 42 48 50 55 62 69 71 73 75 75 78 88 98 104 104 106 108 111 107 103 98 100 95 93 94 91 94 89 82 72 69 63 58 55 47 40 51 69 85 106 128 155 157
42 45 47 51 58 64 71 75 77 79 87 87 90 101 105 105 108 108 110 108 104 100 103 97 98 94 90 97 90 87 76 69 65 61 61 49 43 50 69 81 98 115 159 162
42 50 55 57 62 71 76 77 77 81 90 99 102 105 109 109 108 109 110 107 105 100 102 101 97 94 94 95 97 92 81 71 68 64 62 47 46 48 59 76 91 113 152 165
53 55 58 63 66 72 76 76 84 90 96 104 107 105 111 111 109 106 107 104 102 101 98 98 98 98 92 98 101 98 90 77 71 66 60 47 43 41 48 66 81 100 133 163
56 62 62 68 71 74 84 82 87 89 96 105 108 107 112 112 110 107 105 101 98 99 97 100 101 102 93 97 104 102 96 81 73 66 57 46 39 35 42 57 72 92 120 156
57 64 72 79 80 80 89 88 91 95 99 106 110 104 105 107 106 103 101 100 96 98 100 100 101 103 103 97 105 103 98 83 73 65 51 43 37 33 38 52 67 81 106 140
65 62 71 84 82 80 93 94 94 99 105 111 104 106 105 106 105 103 101 98 95 97 98 100 100 101 103 100 104 105 99 85 74 66 52 39 33 33 36 46 61 74 93 121
66 68 71 75 77 80 91 91 93 100 109 110 110 101 106 107 107 104 100 99 96 96 100 101 102 103 101 97 102 102 98 86 75 65 52 38 30 30 33 41 56 68 85 112
70 72 77 78 84 84 97 91 93 96 109 109 113 107 105 105 104 104 101 100 95 95 98 102 103 103 101 93 98 100 96 84 75 66 51 37 29 28 30 38 51 64 79 101
79 84 88 86 90 82 99 92 93 101 107 107 107 103 103 106 103 104 104 99 95 95 97 103 102 102 103 96 95 99 94 85 75 66 53 37 28 25 28 34 45 56 74 94
80 83 89 93 92 85 100 97 93 101 100 104 101 101 100 102 101 102 102 101 99 98 100 102 102 101 101 97 92 96 95 84 74 65 53 40 29 23 25 32 40 50 70 87
85 89 96 100 99 100 104 103 102 102 98 96 95 98 101 103 102 103 103 103 101 102 103 103 102 102 101 97 93 90 93 83 76 63 51 41 27 20 22 29 38 49 67 85
92 95 99 104 98 100 105 105 104 103 101 95 92 95 100 101 106 107 106 103 101 103 103 104 104 102 98 96 94 89 92 82 76 61 48 38 28 18 18 25 35 48 64 78
97 104 107 104 99 107 101 107 111 104 101 96 91 97 100 102 104 106 108 103 99 99 102 105 103 104 95 95 94 90 84 80 75 61 47 35 26 15 14 22 33 46 60 74
100 109 110 107 110 112 113 116 115 104 103 104 100 100 102 103 105 106 107 104 98 97 99 101 102 99 95 95 93 87 79 78 73 61 48 33 22 14 13 19 31 43 59 72
109 116 111 107 109 111 113 116 109 106 105 110 108 107 107 106 106 105 102 102 99 97 97 97 99 96 95 94 91 86 76 75 69 61 49 34 19 12 14 19 30 42 57 70
120 114 115 114 119 107 116 118 110 108 110 113 118 114 110 107 106 105 105 101 102 96 94 93 92 91 91 89 92 85 79 71 63 58 48 35 19 10 13 20 29 42 58 71
120 119 120 119 122 120 113 105 111 106 112 116 113 110 107 103 103 104 103 98 96 93 88 88 89 88 87 88 90 82 79 64 59 54 47 33 20 9 11 21 29 43 56 70
Wind_Direction
312 312 309 311 313 327 327 327 327 330 335 335 338 338 340 345 346 343 345 345 346 346 346 348 353 355 357 355 354 348 343 313 266 235 226 220 217 211 206 203 205 201 203 204
313 310 311 313 317 321 324 324 328 333 334 335 336 341 342 343 344 344 345 346 347 348 347 347 351 354 358 356 349 349 341 333 292 253 231 224 220 213 210 205 202 200 202 204
319 313 314 312 318 323 327 327 333 334 335 336 338 342 341 342 343 344 345 346 349 349 349 349 350 354 356 355 350 343 342 332 316 272 243 228 220 218 211 204 203 201 200 203
322 319 322 322 325 330 333 334 334 331 333 337 339 345 344 342 343 343 344 346 349 347 349 347 349 350 353 354 349 342 338 334 322 297 258 236 227 219 212 205 204 201 199 202
323 322 323 325 329 337 340 335 334 335 336 338 343 341 348 346 343 345 344 345 346 347 349 348 350 349 352 353 352 342 336 332 323 307 274 245 229 223 215 208 203 202 200 199
322 326 329 331 336 337 340 339 335 333 335 337 342 341 348 346 345 345 343 344 346 347 346 348 348 345 348 349 350 345 340 333 324 313 285 252 235 223 217 212 207 205 199 198
334 330 329 330 338 338 336 336 334 333 335 338 345 342 345 345 344 345 344 345 346 347 346 347 345 347 347 349 348 346 338 331 326 317 302 264 242 229 219 214 209 205 200 199
335 333 328 328 331 337 336 336 338 339 343 347 345 340 343 344 345 344 344 346 347 346 347 345 346 345 347 347 346 347 340 330 325 318 308 289 249 235 222 217 209 205 202 200
329 328 329 332 333 333 335 338 338 339 340 342 344 340 341 344 343 343 343 345 346 346 346 347 345 347 345 348 346 347 340 331 324 317 309 297 274 241 230 218 211 206 201 200
330 329 328 327 333 331 332 340 341 340 339 339 344 340 341 343 341 342 342 342 343 345 344 345 345 346 345 343 344 344 340 331 323 316 309 299 277 250 232 225 214 207 203 202
329 330 327 322 328 333 331 335 341 343 341 342 342 340 340 341 341 341 340 341 342 344 343 345 345 344 345 343 343 344 341 331 324 316 309 299 274 255 236 230 219 211 204 202
328 330 331 325 332 332 333 339 346 344 342 342 340 341 339 339 338 339 339 339 340 341 342 344 345 345 343 344 340 343 342 333 326 319 312 299 282 263 242 227 222 214 206 204
325 325 330 328 332 330 328 338 343 341 340 340 338 339 337 336 335 335 336 337 338 338 341 344 344 344 344 344 340 341 341 333 329 321 314 305 291 270 242 224 222 216 209 205
322 327 332 329 333 334 332 339 341 339 337 336 336 336 335 333 333 331 332 334 335 337 338 343 343 344 344 342 342 340 342 335 332 324 317 311 294 270 243 224 220 215 211 206
321 323 331 325 329 334 332 336 337 338 336 335 334 332 333 333 332 330 332 332 334 334 338 342 340 342 343 344 342 341 342 337 335 329 322 314 293 269 243 226 220 214 211 207
319 324 326 325 327 336 330 332 336 335 331 335 331 330 329 331 331 330 331 331 331 334 336 339 339 341 341 341 343 340 344 338 337 331 327 318 297 271 247 227 219 213 209 205
321 323 324 325 326 335 326 332 334 333 328 331 329 327 326 330 329 329 332 331 332 334 334 338 339 341 340 341 345 342 345 340 339 333 330 318 303 276 249 228 220 212 207 207
323 320 322 327 325 334 323 328 331 329 327 327 327 327 326 326 328 327 329 332 331 332 333 336 338 340 339 341 345 342 346 343 341 335 331 325 312 280 251 230 220 212 203 204
319 320 322 321 322 333 320 325 323 323 327 323 324 325 323 324 326 328 328 330 330 332 332 335 338 338 339 341 345 344 345 344 343 337 333 328 317 286 250 230 219 208 202 202
319 322 321 319 325 328 322 328 325 324 323 320 321 323 324 323 325 325 329 330 330 330 331 334 337 337 338 341 345 345 345 347 342 339 337 328 320 289 248 225 217 206 202 198
319 319 317 315 325 324 325 326 327 324 320 321 321 321 323 322 323 325 326 326 326 326 328 331 334 336 336 340 342 344 344 349 341 340 339 329 320 291 247 221 209 201 199 197
318 314 310 317 322 320 325 327 326 323 322 320 320 320 321 321 320 320 321 322 321 322 324 327 330 333 334 338 341 342 344 350 341 340 341 332 319 299 237 214 203 198 197 196
314 307 310 319 322 324 325 324 323 322 324 323 320 319 318 319 317 316 316 317 318 318 320 325 327 332 334 334 338 341 343 350 341 340 341 337 321 300 234 209 199 195 193 194
308 303 314 320 318 321 323 320 320 318 318 321 321 317 315 315 315 314 312 312 314 316 318 322 325 329 332 333 337 339 344 348 342 338 340 337 329 297 240 206 201 197 192 194
299 310 314 322 319 322 320 316 319 317 316 316 319 316 313 311 311 311 310 311 313 317 316 319 322 327 329 330 335 337 341 346 342 337 340 336 335 292 239 206 203 197 192 193
305 311 316 320 316 317 316 315 314 314 313 315 315 311 308 307 308 309 312 313 316 318 317 317 319 325 327 329 334 337 340 347 342 336 338 335 330 299 231 208 198 195 193 196